CAPE
336 574 861 1073 708 615 690 680 611 507 462 435 369 302 291 324 313 273 263 213 223 256 414 372 402 408 366 221 212 0 0 5 0 3 88 218 35 81 145 55 0 98 105
426 922 939 988 820 599 612 646 582 544 568 560 537 498 349 363 349 341 322 315 353 378 411 419 359 317 233 189 173 22 0 0 0 0 0 42 0 0 68 145 0 115 227
561 1069 797 833 870 579 471 465 437 511 573 539 463 429 452 476 463 403 383 373 471 509 517 480 376 280 184 184 181 179 71 0 0 0 0 0 2 0 13 14 59 17 240
733 1103 750 774 803 540 369 286 314 435 419 345 261 200 154 114 92 93 84 87 89 106 145 226 272 233 221 210 192 151 132 48 0 0 0 2 0 0 0 184 193 109 269
936 1050 822 735 718 490 350 338 349 360 372 375 429 470 397 286 199 111 43 19 36 51 50 60 75 63 16 24 72 120 129 103 29 0 101 87 76 20 0 94 466 404 232
1024 1100 686 678 636 465 374 409 416 404 361 306 350 343 267 185 143 118 95 71 55 64 70 43 6 4 5 9 10 9 1 1 0 114 107 101 94 80 56 72 131 170 218
931 970 765 600 553 456 421 452 412 433 376 330 379 251 171 88 47 2 1 0 0 0 0 0 0 0 0 0 0 0 0 0 0 0 0 2 12 61 40 28 56 96 188
821 905 794 553 475 490 491 450 414 351 315 232 178 103 43 1 0 0 0 0 0 0 0 0 0 0 0 0 0 0 0 0 0 0 0 0 0 0 3 49 120 95 91
1033 969 678 579 448 394 380 295 245 205 116 36 1 0 0 0 0 0 0 0 0 0 0 0 0 0 0 0 0 0 0 0 0 2 65 61 12 4 4 1 1 35 179
996 900 823 641 415 255 114 69 41 7 0 0 0 0 0 0 0 0 0 0 0 0 0 0 0 0 0 0 0 0 0 0 0 0 0 3 2 0 7 43 68 118 72
640 633 468 131 20 1 0 0 0 0 0 0 0 0 0 0 0 0 0 0 0 0 0 0 0 0 0 0 0 0 0 0 0 0 0 0 0 0 3 2 18 51 160
655 414 282 15 0 0 0 0 0 0 0 0 0 0 0 0 0 0 0 0 0 0 0 0 0 0 0 0 0 0 0 0 0 0 0 0 0 0 0 0 0 0 1
454 31 4 4 0 0 0 0 0 0 0 0 0 0 0 0 0 0 0 0 0 0 0 0 0 0 0 0 0 0 0 0 0 0 0 0 0 0 0 0 0 0 0
61 2 3 1 0 0 0 0 0 0 0 0 0 0 0 0 0 0 0 0 0 0 0 0 0 0 0 0 0 0 0 0 0 0 0 0 0 0 0 0 0 0 0
6 0 0 0 0 0 0 0 0 0 0 0 0 0 0 0 0 0 0 0 0 0 0 0 0 0 0 0 0 0 0 0 0 0 0 0 0 0 0 0 0 0 0
0 0 0 0 0 0 0 0 0 0 0 0 0 0 0 0 0 0 0 0 0 0 0 0 0 0 0 0 0 0 0 0 0 0 0 0 0 0 0 0 0 1 2
0 0 0 0 0 0 0 0 0 0 0 0 0 0 0 0 0 0 0 0 0 0 0 0 0 0 0 0 0 0 0 0 0 0 0 0 0 0 0 0 6 6 3
0 0 0 0 0 0 0 0 0 0 0 0 0 0 0 0 0 0 0 0 0 0 0 0 0 0 0 0 0 0 0 0 0 0 0 0 0 0 0 0 1 0 2
0 0 0 0 0 0 0 0 0 0 0 0 0 0 0 0 0 0 0 0 0 0 0 0 0 0 0 0 0 0 0 0 0 0 0 0 0 0 0 0 0 0 0
0 0 0 0 0 0 0 0 0 0 0 0 0 0 0 0 0 0 0 0 0 0 0 0 0 0 0 0 0 0 0 0 0 0 0 0 0 0 0 0 0 0 0
0 0 0 0 0 0 0 0 0 0 0 0 0 0 0 0 0 0 0 0 0 0 0 0 0 0 0 0 0 0 0 0 0 0 0 0 0 0 0 0 0 0 0
0 0 0 0 0 0 0 0 0 0 0 0 0 0 0 0 0 0 0 0 0 0 0 0 0 0 0 0 0 0 0 0 0 0 0 0 0 0 0 0 0 0 0
0 0 0 0 0 0 0 0 0 0 0 0 0 0 0 0 0 0 0 0 0 0 0 0 0 0 0 0 0 0 0 0 0 0 0 0 0 0 0 0 0 0 0
0 0 0 0 0 0 0 0 0 0 0 0 0 0 0 0 0 0 0 0 0 0 0 0 0 0 0 0 0 0 0 0 0 0 0 0 0 0 0 0 0 0 0
0 0 0 0 0 0 0 0 0 0 0 0 0 0 0 0 0 0 0 0 0 0 0 0 0 0 0 0 0 0 0 0 0 0 0 0 0 0 0 0 0 0 0
0 0 0 0 0 0 0 0 0 0 0 0 0 0 0 0 0 0 0 0 0 0 0 0 0 0 0 0 0 0 0 0 0 0 1 0 0 0 0 0 0 0 0
CIN
-122 -136 -73 -27 -40 -31 -15 -6 -2 -3 -9 -11 -15 -22 -31 -30 -18 -19 -21 -33 -26 -18 -5 -2 -2 -3 -2 -5 -8 0 0 -44 0 -9 -63 -8 -16 -43 -20 -67 0 -27 -28
-102 -76 -59 -32 -36 -29 -17 -5 -1 0 -2 -5 -4 -10 -10 -13 -13 -31 -17 -14 -5 -4 -3 -3 -2 -1 -7 -8 -10 -66 0 0 0 0 0 -59 0 -3 -58 -28 0 -32 -6
-73 -50 -57 -47 -31 -48 -29 -15 -10 -2 0 -1 -6 -7 -2 0 0 0 0 -1 0 0 -1 0 -1 -8 -21 -16 -13 -16 -61 0 0 0 0 0 -2 0 -51 -107 -63 -90 -7
-51 -31 -45 -42 -35 -49 -60 -46 -24 -3 0 -4 -14 -16 -27 -31 -32 -26 -22 -16 -14 -14 -11 -5 -4 -7 -14 -14 -16 -21 -35 -62 0 0 0 0 0 0 0 -24 -22 -37 -6
-29 -19 -40 -28 -23 -47 -62 -39 -24 -12 -3 -1 0 0 -1 -1 -14 -39 -65 -78 -57 -38 -38 -26 -23 -39 -86 -72 -48 -28 -24 -38 -82 0 -4 -3 -5 -33 0 -24 0 -2 -9
-12 -7 -45 -30 -14 -31 -41 -33 -16 -11 -7 -5 -3 -1 -2 -12 -24 -36 -42 -45 -49 -44 -38 -46 -11 -2 -2 -85 -82 -97 -75 -2 -2 -2 -6 -4 -12 -27 -34 -33 -8 -5 -3
-8 -6 -7 -17 -20 -17 -15 -16 -14 -4 -2 -5 0 -7 -30 -65 -82 0 0 0 0 0 0 0 0 0 0 0 0 0 0 0 0 0 0 -1 -60 -52 -49 -68 -43 -22 -4
-5 -10 -5 -4 -11 -10 -4 -5 -8 -8 -6 -15 -20 -60 -104 0 0 0 0 0 0 0 0 0 0 0 0 0 0 0 0 0 0 0 0 0 0 0 -43 -35 -13 -18 -21
-4 0 -6 -3 -10 -15 -19 -17 -11 -35 -92 -151 -12 0 0 0 0 0 0 0 0 0 0 0 0 0 0 0 0 0 0 0 0 -6 -49 -48 -142 -14 -36 -3 0 -45 -1
-10 -6 0 -2 -18 -27 -98 -157 -174 -221 0 0 0 0 0 0 0 0 0 0 0 0 0 0 0 0 0 0 0 0 0 0 0 0 0 0 -13 0 -130 -76 -40 -6 -17
-27 -17 -22 -102 -204 -31 0 0 0 0 0 0 0 0 0 0 0 0 0 0 0 0 0 0 0 0 0 0 0 0 0 0 0 0 0 0 0 0 0 0 -115 -121 -40
-20 -43 -50 -157 0 0 0 0 0 0 0 0 0 0 0 0 0 0 0 0 0 0 0 0 0 0 0 0 0 0 0 0 0 0 0 0 0 0 0 0 0 0 0
-30 -43 -17 0 0 0 0 0 0 0 0 0 0 0 0 0 0 0 0 0 0 0 0 0 0 0 0 0 0 0 0 0 0 0 0 0 0 0 0 0 0 0 0
-132 0 0 0 0 0 0 0 0 0 0 0 0 0 0 0 0 0 0 0 0 0 0 0 0 0 0 0 0 0 0 0 0 0 0 0 0 0 0 0 0 0 0
-93 0 0 0 0 0 0 0 0 0 0 0 0 0 0 0 0 0 0 0 0 0 0 0 0 0 0 0 0 0 0 0 0 0 0 0 0 0 0 0 0 0 0
-1 0 0 0 0 0 0 0 0 0 0 0 0 0 0 0 0 0 0 0 0 0 0 0 0 0 0 0 0 0 0 0 0 0 0 0 0 0 0 0 0 0 0
0 0 0 0 0 0 0 0 0 0 0 0 0 0 0 0 0 0 0 0 0 0 0 0 0 0 0 0 0 0 0 0 0 0 0 0 0 0 0 0 0 0 0
0 0 0 0 0 0 0 0 0 0 0 0 0 0 0 0 0 0 0 0 0 0 0 0 0 0 0 0 0 0 0 0 0 0 0 0 0 0 0 0 0 0 0
0 0 0 0 0 0 0 0 0 0 0 0 0 0 0 0 0 0 0 0 0 0 0 0 0 0 0 0 0 0 0 0 0 0 0 0 0 0 0 0 0 0 0
0 0 0 0 0 0 0 0 0 0 0 0 0 0 0 0 0 0 0 0 0 0 0 0 0 0 0 0 0 0 0 0 0 0 0 0 0 0 0 0 0 0 0
0 0 0 0 0 0 0 0 0 0 0 0 0 0 0 0 0 0 0 0 0 0 0 0 0 0 0 0 0 0 0 0 0 0 0 0 0 0 0 0 0 0 0
0 0 0 0 0 0 0 0 0 0 0 0 0 0 0 0 0 0 0 0 0 0 0 0 0 0 0 0 0 0 0 0 0 0 0 0 0 0 0 0 0 0 0
0 0 0 0 0 0 0 0 0 0 0 0 0 0 0 0 0 0 0 0 0 0 0 0 0 0 0 0 0 0 0 0 0 0 0 0 0 0 0 0 0 0 0
0 0 0 0 0 0 0 0 0 0 0 0 0 0 0 0 0 0 0 0 0 0 0 0 0 0 0 0 0 0 0 0 0 0 0 0 0 0 0 0 0 0 0
0 0 0 0 0 0 0 0 0 0 0 0 0 0 0 0 0 0 0 0 0 0 0 0 0 0 0 0 0 0 0 0 0 0 0 0 0 0 0 0 0 0 0
0 0 0 0 0 0 0 0 0 0 0 0 0 0 0 0 0 0 0 0 0 0 0 0 0 0 0 0 0 0 0 0 0 0 0 0 0 0 0 0 0 0 0
Wind_Speed
4 3 3 5 5 5 6 7 7 8 9 9 9 9 10 9 9 10 10 10 11 13 13 14 13 12 12 12 13 13 15 16 18 20 20 21 21 21 22 21 21 22 20
2 3 4 3 4 4 5 6 6 7 8 8 9 10 10 10 10 10 11 11 12 13 13 13 13 13 14 13 13 14 16 17 19 19 20 20 19 20 21 21 21 22 21
1 1 2 2 3 4 4 5 6 7 8 8 9 9 10 10 10 11 11 12 12 13 14 14 14 14 15 15 14 15 16 18 19 21 22 21 20 20 21 22 21 21 20
1 1 0 1 2 3 4 5 6 6 7 8 8 9 9 9 10 11 12 13 13 14 14 15 15 16 16 17 18 18 19 20 21 22 22 21 22 19 21 22 22 21 20
2 1 1 1 1 2 2 3 5 6 6 7 7 8 9 9 10 11 12 13 14 15 15 16 17 17 18 18 19 19 20 21 22 23 22 22 22 21 22 23 24 22 20
3 4 1 1 1 0 1 2 4 5 5 6 7 7 9 10 11 11 12 13 14 15 15 16 17 18 19 20 20 21 22 23 24 23 23 24 23 22 24 25 26 26 26
4 2 2 1 1 1 1 2 3 4 5 6 7 8 9 10 11 12 13 14 15 15 16 17 17 18 19 20 21 23 24 25 25 25 25 23 23 23 25 26 27 27 27
4 3 2 3 2 2 1 1 2 3 4 5 7 8 9 10 11 12 13 14 15 16 17 18 19 20 21 22 23 24 26 27 27 27 26 26 26 26 28 29 29 29 29
6 5 4 4 4 3 3 2 2 2 3 5 7 8 10 11 12 13 14 15 16 17 18 20 21 22 23 24 25 26 28 28 27 27 28 27 27 27 29 31 31 32 31
8 7 6 5 6 4 3 1 2 3 3 5 7 8 10 12 13 14 15 16 17 18 19 20 22 23 24 24 26 28 30 30 25 28 27 27 30 31 32 32 33 32 31
11 10 9 8 8 7 6 4 3 3 4 5 6 8 11 13 14 15 16 17 18 19 20 22 24 25 26 25 25 29 28 25 27 27 26 26 28 29 31 33 34 34 35
12 12 10 10 9 8 8 5 7 3 6 7 9 11 14 14 15 15 16 17 19 21 21 23 25 25 25 26 25 26 24 26 26 25 25 28 30 32 34 35 36 37 37
14 16 13 10 8 8 9 6 8 7 7 10 12 13 14 15 15 17 17 19 20 22 23 24 25 25 26 25 25 25 25 26 26 26 27 30 32 34 35 36 36 37 37
17 17 14 10 9 11 11 11 10 7 9 12 14 14 16 16 16 16 18 19 21 22 24 23 24 25 25 25 25 26 26 27 28 29 29 30 33 35 36 36 37 37 38
20 18 15 11 11 12 11 10 8 9 11 13 14 16 16 15 16 17 18 20 21 22 23 24 24 25 25 25 25 26 27 28 29 29 30 33 33 35 36 36 37 37 37
20 17 14 13 12 11 12 10 9 10 12 13 15 16 16 17 17 18 19 20 21 23 23 24 24 25 25 26 27 27 29 30 30 31 31 32 33 33 34 35 35 36 36
22 17 15 13 14 13 13 12 11 12 12 14 15 15 17 18 18 18 19 20 22 23 23 23 24 25 26 27 28 29 29 30 31 31 31 30 31 31 32 32 35 35 34
21 18 15 17 17 15 14 13 13 14 14 15 16 17 18 18 18 18 19 20 22 22 23 24 25 26 27 28 29 30 30 29 29 28 27 28 29 30 30 32 32 32 33
20 18 17 20 20 16 14 14 14 13 15 17 17 18 18 17 18 18 19 20 21 22 22 24 25 26 28 28 29 30 28 27 26 25 27 26 27 27 29 31 32 30 34
21 19 19 20 20 18 15 15 15 17 18 17 18 18 17 17 17 17 18 19 20 21 22 23 25 25 26 28 30 27 25 23 23 25 24 24 27 28 29 30 30 31 33
23 20 19 20 20 19 18 18 20 21 19 18 18 17 16 16 16 17 18 19 19 20 21 23 24 26 25 27 26 24 22 21 22 23 23 23 27 27 30 30 31 32 33
26 22 20 19 20 20 21 22 24 20 19 17 17 17 16 15 16 16 17 18 19 20 21 23 24 25 24 25 24 22 23 19 20 20 23 23 27 30 30 31 32 33 33
29 25 22 21 20 20 22 22 21 18 16 19 19 17 16 15 15 15 16 18 19 20 22 23 23 23 23 21 22 21 20 21 23 19 21 24 25 30 30 30 32 33 34
30 26 25 25 23 24 23 23 20 20 19 21 18 16 15 14 14 15 16 17 19 20 21 21 21 20 19 19 17 19 18 18 20 20 19 20 24 26 27 30 30 31 33
32 29 27 27 27 27 26 24 22 22 19 17 16 15 15 14 14 15 16 17 19 20 19 19 19 18 17 16 16 16 17 17 17 18 20 20 23 23 26 25 28 32 35
31 30 29 27 29 27 26 24 22 20 18 18 17 16 15 14 14 15 16 17 18 18 18 18 17 16 15 14 15 14 15 16 17 17 17 16 14 17 19 23 25 28 30
Wind_Direction
358 62 66 68 43 19 8 14 17 18 21 21 17 10 14 17 16 14 6 353 343 338 334 328 332 337 344 348 346 352 349 348 345 343 344 345 345 343 341 340 336 330 343
9 70 91 58 50 26 1 8 11 19 26 19 17 15 14 17 14 9 4 1 357 352 348 345 349 347 337 339 346 343 342 343 343 343 342 344 353 349 342 340 337 330 334
305 78 92 65 53 44 21 21 25 26 27 25 21 21 20 17 13 9 3 357 356 354 354 353 349 340 337 338 340 342 340 336 335 333 334 336 340 343 339 338 338 336 334
335 163 96 38 70 56 43 28 31 22 25 27 20 19 20 16 10 360 355 352 352 351 349 344 343 338 337 333 329 327 327 326 327 328 329 333 330 341 337 334 334 333 332
310 277 291 296 88 64 43 16 21 32 28 17 17 15 14 8 3 354 347 342 343 345 345 343 340 336 335 333 333 331 328 326 324 325 325 329 331 336 334 329 327 330 332
301 296 283 264 280 357 40 20 360 356 1 13 13 12 3 360 356 353 349 347 348 347 345 342 339 335 334 332 330 328 326 323 320 324 323 324 328 327 326 325 322 320 319
290 317 288 268 264 286 312 337 345 341 343 349 357 1 1 357 355 354 351 348 347 344 341 339 337 333 332 330 328 326 323 319 321 319 320 324 323 324 322 319 318 317 317
291 308 287 275 266 293 317 344 1 355 344 344 344 346 347 348 346 344 343 343 341 337 333 330 329 328 326 325 324 322 321 319 318 317 317 318 317 319 317 314 313 312 312
292 291 282 266 268 282 293 311 338 3 359 340 337 335 334 336 338 338 338 338 337 334 332 328 324 322 321 322 321 319 317 317 318 317 315 317 322 320 317 314 313 311 311
284 283 281 273 269 270 274 294 305 326 348 341 334 335 334 332 331 331 333 332 333 332 330 328 325 322 321 322 321 318 314 312 322 317 318 318 315 314 314 314 313 313 313
276 274 272 273 270 268 270 264 281 310 334 344 336 332 327 325 327 327 329 330 329 328 327 324 321 319 317 323 324 320 321 325 322 322 322 326 323 320 317 314 314 314 313
265 270 264 263 258 257 259 267 273 291 308 316 315 315 316 321 322 326 328 327 325 321 320 319 319 322 324 326 328 329 331 328 328 329 328 326 322 320 318 316 314 312 310
267 270 266 259 246 244 255 265 271 297 309 304 305 308 315 318 319 319 320 316 309 310 315 319 324 327 326 329 330 331 331 330 329 329 326 324 323 320 319 317 315 314 313
271 267 261 253 245 251 257 259 268 294 298 295 300 306 308 310 314 315 310 306 307 314 318 326 330 330 330 331 333 331 330 329 328 326 326 327 325 322 321 320 318 316 314
269 263 257 250 246 252 253 263 275 288 290 297 300 300 303 309 307 305 304 307 313 318 324 327 331 331 330 331 333 333 333 331 330 330 329 326 327 325 324 323 322 321 319
266 258 250 246 245 244 258 260 275 284 289 297 299 299 302 297 296 300 305 312 318 322 326 329 331 331 331 331 332 333 332 331 331 330 329 329 329 330 329 328 327 326 324
261 258 247 240 243 245 255 262 275 281 290 294 297 294 288 290 295 301 309 316 322 327 329 331 331 331 330 330 330 332 334 334 333 333 333 334 334 335 335 335 333 331 331
257 250 245 249 245 246 255 261 273 279 287 289 285 283 285 291 299 307 314 321 326 330 330 330 329 329 329 329 330 333 334 337 338 340 343 343 344 343 342 342 341 339 338
251 246 241 245 244 248 252 262 269 275 279 278 281 283 287 295 303 312 318 325 328 331 333 332 331 331 330 332 333 335 340 344 348 351 350 352 353 352 349 346 344 345 341
251 247 244 244 243 245 251 258 266 269 271 277 281 284 290 297 305 313 321 327 331 333 335 335 333 335 335 335 335 340 346 352 357 354 355 358 356 354 354 353 354 352 347
251 244 237 239 238 241 246 251 257 259 266 276 283 286 290 297 306 315 323 328 333 335 336 335 335 335 338 339 342 348 353 358 360 6 6 6 1 4 357 358 353 351 349
249 241 236 233 234 239 245 249 256 258 268 277 283 285 289 297 306 316 323 330 334 335 336 335 336 337 342 345 347 351 352 2 5 5 5 6 1 357 358 358 356 354 356
248 240 232 229 228 237 242 245 253 260 269 273 277 281 286 295 306 317 325 330 332 333 332 334 337 340 343 351 356 358 358 0 1 11 8 5 8 3 5 4 1 360 358
250 241 236 236 232 238 237 241 244 255 262 272 275 278 284 294 306 316 324 328 330 331 332 336 342 344 350 354 6 9 14 15 13 15 22 26 18 16 14 8 11 11 7
253 245 238 237 236 237 238 241 244 255 263 270 273 273 280 292 304 314 323 327 328 330 335 339 344 350 357 3 11 16 26 32 39 39 28 26 22 24 19 23 18 12 7
255 248 240 235 235 234 235 239 241 248 255 263 268 269 277 289 301 311 320 325 328 332 337 341 348 354 2 12 18 36 43 42 42 46 45 44 43 41 31 27 24 20 16